SCP
0 0 0 0 0 0 0 0 0 0 0 0 0 0 0 0 0 0 0 0 0 0 0 0 0 0 0 0 0 0 0 0 0 0 0 0 0 0 0 0 0 0 0 0
0 0 0 0 0 0 0 0 0 0 0 0 0 0 0 0 0 0 0 0 0 0 0 0 0 0 0 0 0 0 0 0 0 0 0 0 0 0 0 0 0 0 0 0
0 0 0 0 0 0 0 0 0 0 0 0 0 0 0 0 0 0 0 0 0 0 0 0 0 0 0 0 0 0 0 0 0 0 0 0 0 0 0 0 0 0 0 0
0 0 0 0 0 0 0 0 0 0 0 0 0 -0 0 0 0 0 0 0 0 0 0 0 0 0 0 0 0 0 0 0 0 0 0 0 0 0 0 0 0 0 0 0
0 0 0 0 0 0 0 0 0 0 0 0 0 0 0 0 0 0 0 0 0 0 0 0 0 0 0 0 0 0 0 0 0 0 0 0 0 0 0 0 0 0 0 0
0 0 0 0 0 0 0 0 0 0 0 0 0 0 -0 0 0 0 0 0 0 0 0 0 0 0 0 0 0 0 0 0 0 0 0 0 0 0 0 0 0 0 0 0
0 0 0 0 0 0 0 0 0 0 0 0 0 0 0 0 0 0 0 0 0 0 0 0 0 0 0 0 0 0 0 0 0 0 0 0 0 0 0 0 0 0 0 0
0 0 0 0 -0 0 0 0 0 0 0 0 0 0 0 0 0 0 0 0 0 0 0 0 0 0 0 0 0 0 0 0 0 0 0 0 0 0 0 0 0 0 0 0
0 0 0 0 0 0 0 0 0 0 0 0 0 0 0 0 0 0 0 0 0 0 0 0 0 0 0 0 0 0 0 0 0 0 0 0 0 0 0 0 0 0 0 0
0 0 0 0 0 0 0 0 0 0 0 0 0 0 0 0 0 0 0 0 0 0 0 0 0 0 0 0 0 0 0 0 0 0 0 0 0 0 0 0 0 0 0 0
0 0 0 0 0 0 0 0 0 0 0 0 0 0 0 0 0 0 0 0 0 0 0 0 0 0 0 0 0 0 0 0 0 0 0 0 0 0 0 0 0 0 0 0
0 0 0 0 0 0 0 0 0 0 0 0 0 0 0 0 0 0 0 0 0 0 0 0 0 0 0 0 0 0 0 0 0 0 0 0 0 0 0 0 0 0 0 0
0 0 0 0 0 0 0 0 0 0 0 0 0 0 0 0 0 0 0 0 0 0 0 0 0 0 0 0 0 0 0 0 0 0 0 0 0 0 0 0 0 0 0 0
0 0 0 0 0 0 0 0 0 0 0 0 0 0 0 0 0 0 0 0 0 0 0 0 0 0 0 0 0 0 0 0 0 0 0 0 0 0 0 0 0 0 0 0
0 0 0 0 0 0 0 0 0 0 0 0 0 0 0 0 0 0 0 0 0 0 0 0 0 0 0 0 0 0 0 0 0 0 0 0 0 0 0 0 0 0 0 0
0 0 0 0 0 -0 -0 -0 0 0 0 0 0 0 0 0 0 0 0 0 0 0 0 0 0 0 0 0 0 0 0 0 0 0 0 0 0 0 0 0 0 0 0 0
0 0 0 0 0 0 0 0 -0 -0 -0 0 0 -0 0 0 0 0 0 0 0 0 0 0 0 0 0 0 0 0 0 0 0 0 0 0 0 0 0 0 0 0 0 0
0 0 0 0 0 0 0 0 0 0 0 0 0 0 0 0 0 0 0 0 0 0 0 0 0 0 0 0 0 0 0 0 0 0 0 0 0 0 0 0 0 0 0 0
0 0 0 0 0 0 0 0 0 0 0 0 0 0 0 0 0 0 0 0 0 0 0 0 0 0 0 0 0 0 0 0 0 0 0 0 0 0 0 0 0 0 0 0
0 0 0 0 0 0 0 0 0 0 0 0 0 0 0 0 0 0 0 0 0 0 0 0 0 0 0 0 0 0 0 0 0 0 0 0 0 0 0 0 0 0 0 0
0 0 0 0 0 0 0 0 0 0 0 0 0 0 0 -0 0 0 0 0 0 0 0 0 0 0 0 0 0 0 0 0 0 0 0 0 0 0 0 0 0 0 0 0
0 0 0 0 0 0 0 0 0 0 0 0 0 0 0 0 0 0 -0 0 0 0 0 0 0 0 0 0 0 0 0 0 0 0 0 0 0 0 0 0 0 0 0 0
0 0 0 0 0 0 0 0 0 0 0 0 0 0 0 0 0 0 0 0 0 0 0 0 0 0 0 0 0 0 0 0 0 0 0 0 0 0 0 0 0 0 0 0
0 0 0 0 0 0 0 0 0 0 0 0 0 0 0 0 0 0 0 0 0 0 0 0 0 0 0 0 0 0 0 0 0 0 0 0 0 0 0 0 0 0 0 0
0 0 0 0 0 0 0 0 0 0 0 0 0 0 0 0 0 0 0 0 0 0 0 0 0 0 0 0 0 0 0 0 0 0 0 0 0 0 0 0 0 0 0 0
0 0 0 0 0 0 0 0 0 0 0 0 0 0 0 0 0 0 0 0 0 0 0 0 0 0 0 0 0 0 0 0 0 0 0 0 0 0 0 0 0 0 0 0
Wind_Speed_500mb
23 15 27 28 26 25 20 22 27 34 15 15 26 36 34 29 28 32 36 46 53 57 50 47 45 46 44 43 41 39 37 33 27 26 24 21 18 18 15 9 3 4 6 9
14 28 37 21 21 23 27 30 34 34 29 21 36 43 39 36 39 43 41 46 55 52 54 48 48 49 50 45 42 42 40 36 35 30 26 22 20 19 14 9 5 1 7 13
40 24 3 22 25 25 30 35 32 31 30 34 43 50 51 46 55 46 49 49 53 63 62 56 54 51 47 46 49 46 43 42 39 33 28 25 23 18 12 8 3 3 8 15
30 35 40 32 30 28 38 26 30 30 19 24 5 29 29 15 30 35 54 54 51 55 61 59 57 54 50 46 45 44 45 43 40 35 31 27 19 18 16 11 7 5 8 12
11 14 29 38 41 29 25 3 16 20 22 26 32 24 8 8 23 29 30 42 47 49 57 59 55 49 45 43 46 45 43 41 38 36 31 30 24 24 21 16 8 6 10 12
39 20 13 24 17 26 6 20 17 18 20 27 31 26 47 28 18 25 7 15 26 36 44 48 48 47 46 41 43 43 40 35 34 35 35 32 30 25 19 13 9 7 8 9
30 47 39 25 21 14 32 21 12 16 15 24 4 23 39 4 10 9 5 10 17 25 34 44 51 52 48 45 44 43 37 38 39 40 39 36 31 25 17 13 8 6 8 10
14 16 39 33 52 32 38 32 18 14 23 30 14 22 11 13 7 2 8 13 14 20 28 38 47 50 50 48 49 43 42 44 45 41 34 29 26 24 20 15 13 11 10 8
8 10 2 4 28 31 23 37 34 33 38 26 26 36 18 12 9 3 6 4 9 17 25 32 40 44 44 43 45 47 48 44 39 40 37 31 26 21 18 14 12 9 7 8
4 13 4 8 10 18 28 10 22 17 14 29 33 33 22 2 6 6 7 8 2 6 14 24 35 41 42 40 42 46 44 46 46 37 32 28 25 22 17 17 12 7 7 8
11 14 11 7 10 18 19 21 14 11 23 23 28 14 15 14 17 14 18 15 11 5 9 18 28 36 37 37 37 44 48 47 40 35 32 31 26 25 20 15 13 11 9 6
2 7 17 23 9 5 9 3 12 18 29 17 22 29 16 21 14 18 17 16 20 14 7 16 26 36 37 39 45 51 48 45 42 41 39 35 33 24 18 16 15 10 7 5
3 2 15 12 10 7 5 9 10 13 8 31 24 9 7 5 15 24 29 34 29 17 9 13 28 41 42 46 51 53 56 55 46 45 43 37 32 26 22 18 13 10 7 7
9 4 3 6 13 8 5 3 4 4 7 4 11 22 32 18 29 41 45 38 38 27 14 17 26 35 45 50 55 62 56 55 55 47 41 39 34 27 21 20 18 15 11 9
7 14 17 18 18 20 17 23 21 24 23 16 17 24 32 32 21 37 41 33 36 36 26 20 30 36 44 55 66 60 58 59 54 47 46 41 35 30 28 25 20 16 15 13
19 15 19 23 23 29 34 38 34 39 38 38 33 44 31 48 28 34 39 37 43 40 38 29 26 34 42 47 50 52 58 61 57 53 50 45 40 33 27 24 21 18 16 15
23 16 14 19 14 14 23 38 42 38 34 27 33 40 29 21 22 34 27 27 30 31 28 26 28 30 36 43 53 61 67 62 63 59 55 47 40 33 28 26 25 22 19 17
22 29 18 17 13 22 27 8 15 25 27 30 32 30 27 28 27 20 23 30 33 23 14 17 19 22 25 31 41 50 55 64 65 63 57 49 41 36 31 29 26 22 20 19
35 29 21 19 23 30 36 28 16 19 28 29 32 32 34 27 19 28 2 6 9 11 8 10 14 16 22 28 31 44 54 62 66 64 57 50 43 38 34 31 29 25 23 20
40 36 24 22 27 29 37 2 10 9 27 14 16 21 20 10 18 8 5 10 13 17 20 17 12 15 21 26 33 40 51 58 65 67 60 49 41 35 30 32 29 26 25 20
31 29 34 31 32 24 31 18 17 18 1 7 8 8 7 11 9 11 21 21 26 31 33 25 16 15 18 25 31 38 46 58 65 62 53 48 42 34 36 34 32 28 24 21
26 23 23 29 26 34 13 24 26 17 12 15 16 18 16 18 24 26 28 28 26 25 24 23 21 20 22 28 32 39 47 53 57 59 54 48 43 43 42 39 34 30 25 23
20 19 19 18 24 4 34 24 39 21 22 24 25 22 17 21 30 29 30 29 26 19 15 17 19 22 25 30 31 36 47 49 58 59 55 50 45 45 43 39 35 31 27 23
23 17 21 21 28 18 31 38 26 36 33 24 26 23 17 24 19 16 21 22 22 16 14 16 20 23 27 30 31 34 36 48 57 55 49 45 46 45 42 37 35 30 26 23
22 26 33 34 24 8 30 39 44 39 32 32 29 26 27 26 24 22 25 26 15 13 18 17 19 22 27 29 29 28 38 50 54 48 43 41 39 42 40 36 34 28 26 23
34 24 25 21 27 38 38 33 39 37 39 42 34 32 33 35 35 28 27 30 27 25 21 18 18 25 28 28 29 36 44 49 49 45 42 42 42 40 41 36 39 36 30 25
Wind_Direction_500mb
195 229 237 241 234 273 264 253 262 266 254 275 260 261 263 246 236 235 226 217 211 208 197 194 189 194 194 197 194 195 199 195 193 192 192 191 188 179 175 166 113 31 5 355
194 232 258 291 276 244 251 253 252 270 274 263 269 261 257 254 234 239 225 216 214 205 198 196 193 195 198 198 193 195 197 196 192 191 191 192 189 185 176 166 175 7 352 357
242 247 1 246 243 244 236 252 261 264 289 274 265 271 253 247 243 234 227 222 216 208 200 199 196 196 193 192 197 195 195 197 200 204 203 197 190 184 181 185 208 298 348 355
260 257 251 244 245 241 262 239 255 259 264 272 105 290 283 290 218 228 227 221 218 210 206 204 199 196 194 190 191 190 194 199 206 204 201 193 182 176 195 206 231 275 334 346
215 209 218 237 244 230 267 257 235 239 249 276 253 267 299 158 228 228 226 224 221 215 208 204 201 199 193 190 192 194 200 205 207 203 195 188 185 203 206 212 232 289 324 333
253 246 246 246 244 231 259 224 243 254 255 253 245 239 274 264 305 209 69 230 226 213 208 204 200 196 193 187 190 196 199 198 195 192 193 195 198 208 211 214 226 260 282 309
234 237 231 223 217 198 201 193 230 230 213 253 249 224 243 40 48 51 202 206 205 202 197 195 194 194 192 185 189 194 184 187 192 195 196 197 198 203 206 211 223 253 292 302
229 224 206 209 228 211 206 214 228 236 246 269 206 244 262 69 77 219 264 265 216 200 198 197 196 195 193 187 191 188 185 192 196 197 200 201 200 206 215 221 231 243 262 279
242 238 191 1 235 232 245 226 243 272 274 273 257 258 226 152 176 153 68 93 184 200 205 204 202 199 194 188 190 189 191 194 197 201 202 204 207 212 220 226 235 243 259 287
287 273 165 116 183 229 242 327 218 225 241 240 258 259 257 88 359 80 88 74 87 214 210 204 201 198 194 191 192 195 195 197 200 200 204 210 216 216 218 227 233 238 256 282
237 239 157 192 218 238 196 234 231 266 236 264 268 269 7 52 59 69 57 47 29 336 229 211 202 198 195 194 192 197 199 201 198 204 210 214 214 214 210 214 237 233 249 263
152 272 256 256 64 350 64 326 260 233 238 235 272 270 57 73 58 50 39 16 0 343 273 210 201 198 196 197 199 207 206 207 207 211 214 211 210 209 213 222 219 232 246 266
53 202 243 190 195 118 45 24 349 282 273 246 249 253 111 347 352 336 334 326 330 331 294 229 203 213 211 210 213 215 218 210 210 215 211 210 208 208 205 210 215 224 228 248
66 122 335 325 28 28 127 320 61 345 273 313 262 301 294 313 305 302 301 302 310 315 291 241 224 223 222 223 225 220 215 212 214 215 209 208 207 202 205 213 214 218 218 225
203 243 207 215 213 207 237 243 227 232 238 235 266 253 273 278 266 263 275 278 268 269 262 252 239 232 229 229 227 220 214 216 217 205 209 207 202 199 208 210 211 213 212 207
203 242 233 244 234 226 248 251 247 246 245 244 256 264 268 274 278 267 263 262 265 268 273 259 254 235 227 221 213 208 209 210 209 213 211 209 209 206 203 211 208 206 212 205
205 221 214 249 228 248 258 249 243 249 239 239 238 248 274 273 270 272 273 257 266 283 285 278 274 250 225 214 213 209 216 214 216 214 213 212 209 208 201 211 210 201 201 202
207 214 222 254 233 234 252 276 282 248 242 233 248 265 277 276 281 286 286 283 288 291 277 270 257 244 227 208 207 214 214 215 214 214 211 208 206 204 197 211 206 199 199 199
226 232 238 233 244 254 273 250 220 228 255 248 249 255 273 281 282 276 0 309 286 305 319 292 275 236 222 213 213 213 216 216 215 213 211 208 205 200 199 202 199 196 199 198
218 225 224 232 238 258 259 356 222 240 262 264 259 258 265 277 274 308 54 351 341 324 320 316 289 243 223 212 210 214 214 214 214 212 208 204 202 196 191 201 199 195 196 196
194 202 214 224 242 253 261 243 179 225 249 148 214 215 217 237 281 292 290 294 303 307 304 304 291 251 228 219 217 220 218 215 214 207 202 200 197 190 195 198 195 193 193 193
189 193 212 231 240 249 178 165 210 228 175 197 210 213 226 257 282 291 292 292 293 292 286 278 271 250 224 223 221 220 216 214 207 199 197 199 194 189 193 194 190 189 188 187
210 204 202 207 218 177 180 203 211 202 212 214 224 233 257 276 295 294 293 294 288 277 252 247 236 226 223 222 221 222 218 209 195 195 194 193 187 191 193 190 191 186 183 184
226 225 224 214 236 208 204 216 212 214 220 230 224 239 248 272 262 260 277 285 282 268 244 242 234 227 226 225 223 226 217 201 194 190 187 180 184 189 188 190 188 186 185 184
224 186 218 235 244 262 239 232 232 232 226 234 236 233 246 247 250 257 256 255 254 262 268 252 236 226 226 227 226 217 202 194 190 190 183 178 182 186 189 188 187 188 192 190
249 225 209 225 215 221 244 242 229 225 229 228 235 236 245 233 245 249 254 253 243 236 238 230 240 228 223 218 211 200 196 196 194 189 184 183 182 182 184 182 190 196 202 206
Wind_Speed_850mb
23 15 27 28 26 25 20 22 27 34 15 15 26 36 34 29 28 32 36 46 53 57 50 47 45 46 44 43 41 39 37 33 27 26 24 21 18 18 15 9 3 4 6 9
14 28 37 21 21 23 27 30 34 34 29 21 36 43 39 36 39 43 41 46 55 52 54 48 48 49 50 45 42 42 40 36 35 30 26 22 20 19 14 9 5 1 7 13
40 24 3 22 25 25 30 35 32 31 30 34 43 50 51 46 55 46 49 49 53 63 62 56 54 51 47 46 49 46 43 42 39 33 28 25 23 18 12 8 3 3 8 15
30 35 40 32 30 28 38 26 30 30 19 24 5 29 29 15 30 35 54 54 51 55 61 59 57 54 50 46 45 44 45 43 40 35 31 27 19 18 16 11 7 5 8 12
11 14 29 38 41 29 25 3 16 20 22 26 32 24 8 8 23 29 30 42 47 49 57 59 55 49 45 43 46 45 43 41 38 36 31 30 24 24 21 16 8 6 10 12
39 20 13 24 17 26 6 20 17 18 20 27 31 26 47 28 18 25 7 15 26 36 44 48 48 47 46 41 43 43 40 35 34 35 35 32 30 25 19 13 9 7 8 9
30 47 39 25 21 14 32 21 12 16 15 24 4 23 39 4 10 9 5 10 17 25 34 44 51 52 48 45 44 43 37 38 39 40 39 36 31 25 17 13 8 6 8 10
14 16 39 33 52 32 38 32 18 14 23 30 14 22 11 13 7 2 8 13 14 20 28 38 47 50 50 48 49 43 42 44 45 41 34 29 26 24 20 15 13 11 10 8
8 10 2 4 28 31 23 37 34 33 38 26 26 36 18 12 9 3 6 4 9 17 25 32 40 44 44 43 45 47 48 44 39 40 37 31 26 21 18 14 12 9 7 8
4 13 4 8 10 18 28 10 22 17 14 29 33 33 22 2 6 6 7 8 2 6 14 24 35 41 42 40 42 46 44 46 46 37 32 28 25 22 17 17 12 7 7 8
11 14 11 7 10 18 19 21 14 11 23 23 28 14 15 14 17 14 18 15 11 5 9 18 28 36 37 37 37 44 48 47 40 35 32 31 26 25 20 15 13 11 9 6
2 7 17 23 9 5 9 3 12 18 29 17 22 29 16 21 14 18 17 16 20 14 7 16 26 36 37 39 45 51 48 45 42 41 39 35 33 24 18 16 15 10 7 5
3 2 15 12 10 7 5 9 10 13 8 31 24 9 7 5 15 24 29 34 29 17 9 13 28 41 42 46 51 53 56 55 46 45 43 37 32 26 22 18 13 10 7 7
9 4 3 6 13 8 5 3 4 4 7 4 11 22 32 18 29 41 45 38 38 27 14 17 26 35 45 50 55 62 56 55 55 47 41 39 34 27 21 20 18 15 11 9
7 14 17 18 18 20 17 23 21 24 23 16 17 24 32 32 21 37 41 33 36 36 26 20 30 36 44 55 66 60 58 59 54 47 46 41 35 30 28 25 20 16 15 13
19 15 19 23 23 29 34 38 34 39 38 38 33 44 31 48 28 34 39 37 43 40 38 29 26 34 42 47 50 52 58 61 57 53 50 45 40 33 27 24 21 18 16 15
23 16 14 19 14 14 23 38 42 38 34 27 33 40 29 21 22 34 27 27 30 31 28 26 28 30 36 43 53 61 67 62 63 59 55 47 40 33 28 26 25 22 19 17
22 29 18 17 13 22 27 8 15 25 27 30 32 30 27 28 27 20 23 30 33 23 14 17 19 22 25 31 41 50 55 64 65 63 57 49 41 36 31 29 26 22 20 19
35 29 21 19 23 30 36 28 16 19 28 29 32 32 34 27 19 28 2 6 9 11 8 10 14 16 22 28 31 44 54 62 66 64 57 50 43 38 34 31 29 25 23 20
40 36 24 22 27 29 37 2 10 9 27 14 16 21 20 10 18 8 5 10 13 17 20 17 12 15 21 26 33 40 51 58 65 67 60 49 41 35 30 32 29 26 25 20
31 29 34 31 32 24 31 18 17 18 1 7 8 8 7 11 9 11 21 21 26 31 33 25 16 15 18 25 31 38 46 58 65 62 53 48 42 34 36 34 32 28 24 21
26 23 23 29 26 34 13 24 26 17 12 15 16 18 16 18 24 26 28 28 26 25 24 23 21 20 22 28 32 39 47 53 57 59 54 48 43 43 42 39 34 30 25 23
20 19 19 18 24 4 34 24 39 21 22 24 25 22 17 21 30 29 30 29 26 19 15 17 19 22 25 30 31 36 47 49 58 59 55 50 45 45 43 39 35 31 27 23
23 17 21 21 28 18 31 38 26 36 33 24 26 23 17 24 19 16 21 22 22 16 14 16 20 23 27 30 31 34 36 48 57 55 49 45 46 45 42 37 35 30 26 23
22 26 33 34 24 8 30 39 44 39 32 32 29 26 27 26 24 22 25 26 15 13 18 17 19 22 27 29 29 28 38 50 54 48 43 41 39 42 40 36 34 28 26 23
34 24 25 21 27 38 38 33 39 37 39 42 34 32 33 35 35 28 27 30 27 25 21 18 18 25 28 28 29 36 44 49 49 45 42 42 42 40 41 36 39 36 30 25
Wind_Direction_850mb
195 229 237 241 234 273 264 253 262 266 254 275 260 261 263 246 236 235 226 217 211 208 197 194 189 194 194 197 194 195 199 195 193 192 192 191 188 179 175 166 113 31 5 355
194 232 258 291 276 244 251 253 252 270 274 263 269 261 257 254 234 239 225 216 214 205 198 196 193 195 198 198 193 195 197 196 192 191 191 192 189 185 176 166 175 7 352 357
242 247 1 246 243 244 236 252 261 264 289 274 265 271 253 247 243 234 227 222 216 208 200 199 196 196 193 192 197 195 195 197 200 204 203 197 190 184 181 185 208 298 348 355
260 257 251 244 245 241 262 239 255 259 264 272 105 290 283 290 218 228 227 221 218 210 206 204 199 196 194 190 191 190 194 199 206 204 201 193 182 176 195 206 231 275 334 346
215 209 218 237 244 230 267 257 235 239 249 276 253 267 299 158 228 228 226 224 221 215 208 204 201 199 193 190 192 194 200 205 207 203 195 188 185 203 206 212 232 289 324 333
253 246 246 246 244 231 259 224 243 254 255 253 245 239 274 264 305 209 69 230 226 213 208 204 200 196 193 187 190 196 199 198 195 192 193 195 198 208 211 214 226 260 282 309
234 237 231 223 217 198 201 193 230 230 213 253 249 224 243 40 48 51 202 206 205 202 197 195 194 194 192 185 189 194 184 187 192 195 196 197 198 203 206 211 223 253 292 302
229 224 206 209 228 211 206 214 228 236 246 269 206 244 262 69 77 219 264 265 216 200 198 197 196 195 193 187 191 188 185 192 196 197 200 201 200 206 215 221 231 243 262 279
242 238 191 1 235 232 245 226 243 272 274 273 257 258 226 152 176 153 68 93 184 200 205 204 202 199 194 188 190 189 191 194 197 201 202 204 207 212 220 226 235 243 259 287
287 273 165 116 183 229 242 327 218 225 241 240 258 259 257 88 359 80 88 74 87 214 210 204 201 198 194 191 192 195 195 197 200 200 204 210 216 216 218 227 233 238 256 282
237 239 157 192 218 238 196 234 231 266 236 264 268 269 7 52 59 69 57 47 29 336 229 211 202 198 195 194 192 197 199 201 198 204 210 214 214 214 210 214 237 233 249 263
152 272 256 256 64 350 64 326 260 233 238 235 272 270 57 73 58 50 39 16 0 343 273 210 201 198 196 197 199 207 206 207 207 211 214 211 210 209 213 222 219 232 246 266
53 202 243 190 195 118 45 24 349 282 273 246 249 253 111 347 352 336 334 326 330 331 294 229 203 213 211 210 213 215 218 210 210 215 211 210 208 208 205 210 215 224 228 248
66 122 335 325 28 28 127 320 61 345 273 313 262 301 294 313 305 302 301 302 310 315 291 241 224 223 222 223 225 220 215 212 214 215 209 208 207 202 205 213 214 218 218 225
203 243 207 215 213 207 237 243 227 232 238 235 266 253 273 278 266 263 275 278 268 269 262 252 239 232 229 229 227 220 214 216 217 205 209 207 202 199 208 210 211 213 212 207
203 242 233 244 234 226 248 251 247 246 245 244 256 264 268 274 278 267 263 262 265 268 273 259 254 235 227 221 213 208 209 210 209 213 211 209 209 206 203 211 208 206 212 205
205 221 214 249 228 248 258 249 243 249 239 239 238 248 274 273 270 272 273 257 266 283 285 278 274 250 225 214 213 209 216 214 216 214 213 212 209 208 201 211 210 201 201 202
207 214 222 254 233 234 252 276 282 248 242 233 248 265 277 276 281 286 286 283 288 291 277 270 257 244 227 208 207 214 214 215 214 214 211 208 206 204 197 211 206 199 199 199
226 232 238 233 244 254 273 250 220 228 255 248 249 255 273 281 282 276 0 309 286 305 319 292 275 236 222 213 213 213 216 216 215 213 211 208 205 200 199 202 199 196 199 198
218 225 224 232 238 258 259 356 222 240 262 264 259 258 265 277 274 308 54 351 341 324 320 316 289 243 223 212 210 214 214 214 214 212 208 204 202 196 191 201 199 195 196 196
194 202 214 224 242 253 261 243 179 225 249 148 214 215 217 237 281 292 290 294 303 307 304 304 291 251 228 219 217 220 218 215 214 207 202 200 197 190 195 198 195 193 193 193
189 193 212 231 240 249 178 165 210 228 175 197 210 213 226 257 282 291 292 292 293 292 286 278 271 250 224 223 221 220 216 214 207 199 197 199 194 189 193 194 190 189 188 187
210 204 202 207 218 177 180 203 211 202 212 214 224 233 257 276 295 294 293 294 288 277 252 247 236 226 223 222 221 222 218 209 195 195 194 193 187 191 193 190 191 186 183 184
226 225 224 214 236 208 204 216 212 214 220 230 224 239 248 272 262 260 277 285 282 268 244 242 234 227 226 225 223 226 217 201 194 190 187 180 184 189 188 190 188 186 185 184
224 186 218 235 244 262 239 232 232 232 226 234 236 233 246 247 250 257 256 255 254 262 268 252 236 226 226 227 226 217 202 194 190 190 183 178 182 186 189 188 187 188 192 190
249 225 209 225 215 221 244 242 229 225 229 228 235 236 245 233 245 249 254 253 243 236 238 230 240 228 223 218 211 200 196 196 194 189 184 183 182 182 184 182 190 196 202 206